TimeEDT,TemperatureF,Dew PointF,Humidity,Sea Level PressureIn,VisibilityMPH,Wind Direction,Wind SpeedMPH,Gust SpeedMPH,PrecipitationIn,Events,Conditions,WindDirDegrees,DateUTC
12:53 AM,34.0,30.9,89,30.04,10.0,Calm,Calm,-,N/A,,Clear,0,2013-10-21 04:53:00
1:53 AM,33.1,30.0,89,30.05,6.0,Calm,Calm,-,N/A,,Clear,0,2013-10-21 05:53:00
2:53 AM,33.1,30.0,89,30.06,10.0,Calm,Calm,-,N/A,,Scattered Clouds,0,2013-10-21 06:53:00
3:53 AM,34.0,32.0,92,30.06,10.0,Calm,Calm,-,N/A,,Overcast,0,2013-10-21 07:53:00
4:53 AM,36.0,33.1,89,30.07,10.0,Calm,Calm,-,N/A,,Partly Cloudy,0,2013-10-21 08:53:00
5:53 AM,34.0,30.9,89,30.08,10.0,Calm,Calm,-,N/A,,Clear,0,2013-10-21 09:53:00
6:23 AM,33.8,30.2,87,30.08,0.8,Calm,Calm,-,N/A,,Clear,0,2013-10-21 10:23:00
6:32 AM,33.8,30.2,87,30.08,2.5,Calm,Calm,-,N/A,,Clear,0,2013-10-21 10:32:00
6:39 AM,33.8,30.2,87,30.09,7.0,Calm,Calm,-,N/A,,Clear,0,2013-10-21 10:39:00
6:53 AM,33.1,30.9,92,30.09,9.0,Calm,Calm,-,N/A,,Clear,0,2013-10-21 10:53:00
7:53 AM,34.0,32.0,92,30.11,10.0,Calm,Calm,-,N/A,,Clear,0,2013-10-21 11:53:00
8:53 AM,46.9,37.9,71,30.12,10.0,Calm,Calm,-,N/A,,Clear,0,2013-10-21 12:53:00
9:53 AM,54.0,37.0,53,30.12,10.0,WNW,4.6,-,N/A,,Clear,290,2013-10-21 13:53:00
10:53 AM,60.1,37.9,44,30.11,10.0,Variable,6.9,-,N/A,,Clear,0,2013-10-21 14:53:00
11:53 AM,64.0,37.0,37,30.09,10.0,West,4.6,-,N/A,,Clear,280,2013-10-21 15:53:00
12:53 PM,64.9,37.0,36,30.06,10.0,WSW,8.1,-,N/A,,Clear,240,2013-10-21 16:53:00
1:53 PM,66.9,37.9,34,30.04,10.0,Variable,5.8,-,N/A,,Clear,0,2013-10-21 17:53:00
2:53 PM,66.9,37.9,34,30.03,10.0,SW,8.1,-,N/A,,Clear,230,2013-10-21 18:53:00
3:53 PM,66.0,37.0,34,30.02,10.0,WSW,4.6,-,N/A,,Clear,250,2013-10-21 19:53:00
4:53 PM,64.9,37.0,36,30.01,10.0,SSW,8.1,-,N/A,,Clear,200,2013-10-21 20:53:00
5:53 PM,60.1,39.9,47,30.03,10.0,South,5.8,-,N/A,,Clear,180,2013-10-21 21:53:00
6:53 PM,57.9,42.1,56,30.04,10.0,South,8.1,-,N/A,,Clear,190,2013-10-21 22:53:00
7:53 PM,55.9,41.0,57,30.04,10.0,SSW,8.1,-,N/A,,Clear,200,2013-10-21 23:53:00
8:53 PM,53.1,42.1,66,30.04,10.0,South,6.9,-,N/A,,Clear,180,2013-10-22 00:53:00
9:53 PM,50.0,42.1,74,30.04,10.0,South,4.6,-,N/A,,Clear,180,2013-10-22 01:53:00
10:53 PM,50.0,42.1,74,30.03,10.0,South,3.5,-,N/A,,Clear,170,2013-10-22 02:53:00
11:53 PM,43.0,39.0,86,30.01,10.0,Calm,Calm,-,N/A,,Clear,0,2013-10-22 03:53:00